Flag for United Kingdom Weather past 2 weeks in Saint Helier, Jersey, United Kingdom

Now
66 °F

Scattered clouds.


Feels Like: 66 °F
Forecast: 59 / 67 °F
Wind: 5 mph from Southeast

Location: Jersey Airport

Current Time: Oct 2, 2014 at 2:26:44 PM

Latest Report: Oct 2, 2014 at 1:50 PM


Visibility: N/A

Pressure: 30.36 "Hg

Humidity: 83%

Dew point: 61 °F

Location of Saint HelierLocation

Historic Weather in Saint Helier — Graph

°F

Saint Helier temperature yesterday

Maximum temperature yesterday: 66 °F (at 2:50 PM)
Minimum temperature yesterday: 59 °F (at 7:50 PM)
Average temperature yesterday: 63 °F

Past Weeks' High & Low Weather Summary

 TemperatureHumidityPressure
High75 °F (Sep 17, 2:20 PM)100% (Sep 18, 8:20 AM)30.39 "Hg (Sep 18, 8:20 AM)
Low50 °F (Sep 23, 5:50 AM)53% (Sep 27, 1:50 PM)29.68 "Hg (Sep 18, 3:50 AM)
Average63 °F83%30.12 "Hg
* Reported Sep 17 1:20 PM — Oct 2 1:20 PM, Saint Helier, Weather by CustomWeather, © 2014

Note: Actual official high and low records may vary slightly from our data, if they occured in-between our weather recording intervals... More about our weather records

Advertising

Saint Helier weather history for previous 24 hours

 ConditionsComfort  
Time TempWeatherWind HumidityBarometerVisibility
1:20 PM
Oct 2
66 °FPassing clouds.3 mph83%30.36 "HgN/A
12:50 PM66 °FPassing clouds.6 mph78%30.36 "HgN/A
12:20 PM66 °FPassing clouds.7 mph83%30.39 "HgN/A
11:50 AM64 °FScattered clouds.6 mph88%30.39 "HgN/A
11:20 AM64 °FScattered clouds.7 mph83%30.39 "HgN/A
10:50 AM64 °FPassing clouds.5 mph88%30.39 "HgN/A
10:20 AM63 °FPassing clouds.6 mph88%30.39 "HgN/A
9:50 AM63 °FPassing clouds.7 mph94%30.39 "HgN/A
9:20 AM61 °FPassing clouds.6 mph100%30.39 "HgN/A
8:50 AM61 °FPassing clouds.7 mph100%30.39 "HgN/A
8:20 AM61 °FPassing clouds.9 mph100%30.39 "HgN/A
7:50 AM59 °FPassing clouds.9 mph100%30.39 "HgN/A
7:20 AM59 °FPassing clouds.7 mph100%30.39 "HgN/A
6:50 AM59 °FPassing clouds.7 mph100%30.39 "HgN/A
6:20 AM59 °FClear.6 mph100%30.36 "Hg10 mi
5:50 AM59 °FClear.6 mph100%30.36 "Hg10 mi
5:20 AM59 °FPassing clouds.7 mph100%30.36 "HgN/A
4:50 AM61 °FPassing clouds.7 mph94%30.36 "HgN/A
4:20 AM59 °FPassing clouds.5 mph100%30.36 "HgN/A
3:50 AM59 °FFog.6 mph100%30.36 "HgN/A
9:20 PM
Oct 1
61 °FClear.5 mph94%30.36 "Hg10 mi
8:50 PM59 °FClear.5 mph100%30.36 "Hg10 mi
8:20 PM59 °FClear.5 mph94%30.36 "Hg10 mi
7:50 PM59 °FPassing clouds.5 mph100%30.36 "HgN/A
7:20 PM61 °FPassing clouds.2 mph94%30.36 "HgN/A
6:50 PM61 °FPassing clouds.2 mph100%30.33 "HgN/A
6:20 PM63 °FScattered clouds.6 mph94%30.33 "HgN/A
5:50 PM63 °FPassing clouds.5 mph94%30.33 "HgN/A
5:20 PM64 °FScattered clouds.6 mph88%30.33 "HgN/A
4:50 PM64 °FPartly sunny.5 mph94%30.33 "HgN/A
4:20 PM66 °FScattered clouds.10 mph88%30.33 "HgN/A
3:50 PM66 °FScattered clouds.9 mph88%30.33 "HgN/A
3:20 PM64 °FFog.8 mph100%30.30 "HgN/A
2:50 PM66 °FPartly sunny.9 mph94%30.30 "HgN/A
2:20 PM64 °FPartly sunny.8 mph100%30.33 "Hg4 mi
Weather by CustomWeather, © 2014

See weather overviewHow to use our weather pages